Location: Beneden-Haastrecht
(52.0012°N, 4.7557°E)
Time: 03:40:33
(UTC+00:00)

CZ-4 R/B - Pass Details

Date: 24 October 2020
Orbit: 532 x 598 km, 97.7° (Epoch: 27 November)

Event Time Altitude Azimuth Distance (km) Brightness Sun altitude
Rises 17:23:15 0° 143° (SE) 2,713 4.6 -9.2°
Reaches altitude 10° 17:25:29 10° 135° (SE) 1,814 3.6 -9.6°
Maximum altitude 17:29:05 37° 68° (ENE) 858 1.8 -10.1°
Drops below altitude 10° 17:32:41 10° 0° (N) 1,804 3.9 -10.7°
Sets 17:34:53 0° 353° (N) 2,696 4.9 -11.0°
